CW4114 Weather Reports


Display with metric or nautical units.
time (UTC)temp
F
wind
direction
speed
MPH
gust
MPH
rain 1hr
in
rain 24hr
in
rain mn
in
humidity
%
barometer
mb
20210922151450 52 34 6.0 19.0 0.00 0.00 0.00 84 1020.3
20210922150950 53 316 8.0 17.0 0.00 0.00 0.00 84 1020.3
20210922150450 53 21 6.0 17.0 0.00 0.00 0.00 84 1020.5
20210922145949 53 334 7.0 16.0 0.00 0.01 0.00 84 1020.4
20210922145450 53 54 6.0 19.0 0.00 0.04 0.00 84 1020.6
20210922144949 53 71 6.0 19.0 0.00 0.15 0.00 84 1020.6
20210922144451 53 24 7.0 15.0 0.00 0.33 0.00 84 1020.8
20210922143951 53 355 7.0 16.0 0.00 0.33 0.00 84 1020.8
20210922143449 53 34 7.0 16.0 0.00 0.35 0.00 84 1020.8
20210922142950 53 38 5.0 14.0 0.00 0.35 0.00 83 1020.8
20210922142445 53 90 4.0 14.0 0.00 0.36 0.00 83 1020.9
20210922141945 53 21 5.0 13.0 0.00 0.39 0.00 84 1021.0
20210922141444 53 7 5.0 13.0 0.00 0.42 0.00 84 1021.0
20210922140943 53 35 6.0 12.0 0.00 0.46 0.00 84 1020.9
20210922140445 53 344 6.0 15.0 0.00 0.47 0.00 84 1020.6
20210922135944 53 48 4.0 15.0 0.00 0.47 0.00 84 1020.8
20210922135444 53 49 6.0 14.0 0.00 0.47 0.00 84 1020.5
20210922134946 53 21 6.0 14.0 0.00 0.47 0.00 84 1020.5
20210922134442 53 307 4.0 12.0 0.00 0.47 0.00 84 1020.6
20210922133942 53 52 5.0 15.0 0.00 0.47 0.00 84 1020.5
20210922133441 53 8 5.0 15.0 0.00 0.47 0.00 84 1020.3
20210922132943 53 24 6.0 15.0 0.00 0.47 0.00 84 1020.3
20210922132443 53 79 5.0 15.0 0.00 0.47 0.00 84 1020.1
20210922131942 53 59 4.0 13.0 0.00 0.47 0.00 85 1020.0
20210922131441 53 21 6.0 15.0 0.00 0.47 0.00 84 1020.1
20210922130940 53 21 7.0 15.0 0.00 0.47 0.00 84 1020.0
20210922130433 53 52 8.0 16.0 0.00 0.47 0.00 83 1019.8
20210922125933 53 11 6.0 16.0 0.00 0.47 0.00 83 1019.8
20210922125433 53 25 4.0 13.0 0.00 0.47 0.00 84 1020.0
20210922124933 53 0 5.0 15.0 0.00 0.47 0.00 84 1020.0
20210922124434 53 44 5.0 16.0 0.00 0.47 0.00 83 1020.1
20210922123933 53 76 7.0 16.0 0.00 0.47 0.00 83 1020.3
20210922123433 53 32 5.0 13.0 0.00 0.47 0.00 84 1020.3
20210922122926 53 24 6.0 14.0 0.00 0.47 0.00 83 1020.5
20210922122429 53 51 4.0 14.0 0.00 0.47 0.00 83 1020.6
20210922121923 53 66 6.0 13.0 0.00 0.47 0.00 83 1020.5
20210922121426 53 61 6.0 13.0 0.00 0.47 0.00 82 1020.2
20210922120925 53 42 4.0 13.0 0.00 0.47 0.00 82 1020.5
20210922120416 53 61 5.0 13.0 0.00 0.47 0.00 82 1020.5
20210922115917 53 15 4.0 13.0 0.00 0.47 0.00 84 1020.0
20210922115415 53 24 7.0 13.0 0.00 0.47 0.00 82 1019.9
20210922114914 53 56 6.0 14.0 0.00 0.47 0.00 83 1019.8
20210922114416 53 27 4.0 14.0 0.00 0.47 0.00 83 1019.7
20210922113914 53 73 5.0 13.0 0.00 0.47 0.00 84 1019.6
20210922113413 53 65 5.0 13.0 0.00 0.47 0.00 83 1019.4
20210922112910 53 334 4.0 14.0 0.00 0.47 0.00 83 1019.2
20210922112413 53 86 5.0 18.0 0.00 0.47 0.00 83 1019.0
20210922111909 53 24 8.0 18.0 0.00 0.47 0.00 83 1018.9
20210922111409 53 30 4.0 16.0 0.00 0.47 0.00 83 1018.9
20210922110908 53 58 6.0 12.0 0.00 0.47 0.00 82 1018.9
20210922110408 53 49 4.0 14.0 0.00 0.47 0.00 82 1019.0
20210922105908 53 45 4.0 14.0 0.00 0.47 0.00 81 1019.2
20210922105409 53 152 4.0 13.0 0.00 0.47 0.00 81 1019.1
20210922104906 53 17 6.0 14.0 0.00 0.47 0.00 80 1019.3
20210922104405 53 21 6.0 16.0 0.00 0.47 0.00 81 1019.4
20210922103910 53 355 6.0 17.0 0.00 0.47 0.00 80 1019.3
20210922103402 53 28 6.0 17.0 0.00 0.47 0.00 80 1019.7
20210922102905 53 24 7.0 14.0 0.00 0.47 0.00 81 1019.8
20210922102401 53 4 7.0 16.0 0.00 0.47 0.00 81 1019.6
20210922101903 53 340 5.0 16.0 0.00 0.47 0.00 81 1019.4
20210922101402 53 12 6.0 15.0 0.00 0.47 0.00 81 1019.4
20210922100901 53 45 5.0 15.0 0.00 0.47 0.00 80 1019.5
20210922100402 53 15 7.0 15.0 0.00 0.47 0.00 81 1019.4
20210922095904 53 1 7.0 17.0 0.00 0.47 0.00 81 1019.6
20210922095403 53 9 8.0 17.0 0.00 0.47 0.00 81 1019.8
20210922094901 53 19 5.0 17.0 0.00 0.47 0.00 80 1019.7
20210922094401 53 49 5.0 17.0 0.00 0.47 0.00 81 1019.4
20210922093902 53 47 5.0 17.0 0.00 0.47 0.00 81 1019.4
20210922093401 53 41 6.0 17.0 0.00 0.47 0.00 81 1019.5
20210922092900 54 21 5.0 16.0 0.00 0.47 0.00 82 1019.6
20210922092401 54 49 7.0 16.0 0.00 0.47 0.00 81 1019.5
20210922091903 54 48 9.0 16.0 0.00 0.47 0.00 81 1019.5
20210922091401 54 56 5.0 18.0 0.00 0.47 0.00 81 1019.4
20210922090901 53 357 6.0 18.0 0.00 0.47 0.00 81 1019.4
20210922090400 54 268 6.0 15.0 0.00 0.47 0.00 81 1019.5
20210922085901 54 30 4.0 16.0 0.00 0.47 0.00 81 1019.2
20210922085400 54 38 8.0 16.0 0.00 0.47 0.00 80 1019.2
20210922084859 54 11 8.0 15.0 0.00 0.47 0.00 80 1019.0
20210922084400 54 14 6.0 15.0 0.00 0.47 0.00 80 1018.9
20210922083904 54 61 7.0 15.0 0.00 0.47 0.00 80 1019.0
20210922083359 54 25 8.0 18.0 0.00 0.47 0.00 79 1019.2
20210922082900 54 40 7.0 19.0 0.00 0.47 0.00 80 1019.1
20210922082359 54 12 9.0 19.0 0.00 0.47 0.00 80 1019.3
20210922081900 54 355 6.0 17.0 0.00 0.47 0.00 80 1019.3
20210922081358 54 11 7.0 15.0 0.00 0.47 0.00 80 1019.6
20210922080859 54 18 7.0 15.0 0.00 0.47 0.00 79 1019.5
20210922080359 54 40 9.0 15.0 0.00 0.47 0.00 79 1019.5
20210922075858 54 5 6.0 15.0 0.00 0.47 0.00 80 1019.5
20210922075400 54 78 6.0 14.0 0.00 0.47 0.00 79 1020.1
20210922074858 55 18 6.0 14.0 0.00 0.47 0.00 79 1020.3
20210922074357 55 15 7.0 15.0 0.00 0.47 0.00 80 1020.2
20210922073858 55 40 7.0 16.0 0.00 0.47 0.00 79 1020.2
20210922073358 55 357 6.0 16.0 0.00 0.47 0.00 78 1020.5
20210922072857 55 9 6.0 16.0 0.00 0.47 0.00 79 1020.5
20210922072357 55 52 6.0 13.0 0.00 0.47 0.00 79 1020.4
20210922071855 55 55 5.0 17.0 0.00 0.47 0.00 79 1020.3
20210922071356 55 38 9.0 17.0 0.00 0.47 0.00 79 1020.1
20210922070858 55 316 5.0 15.0 0.00 0.47 0.00 80 1019.8
20210922070354 55 44 5.0 16.0 0.00 0.47 0.00 78 1019.6
20210922065854 55 25 9.0 19.0 0.00 0.47 0.00 78 1019.6
20210922065352 55 348 9.0 19.0 0.00 0.47 0.00 77 1019.4
20210922064853 55 24 9.0 17.0 0.00 0.47 0.00 78 1019.6
20210922064355 55 30 4.0 19.0 0.00 0.47 0.00 78 1019.6
20210922063851 55 25 6.0 19.0 0.00 0.47 0.00 77 1020.0
20210922063351 55 63 7.0 17.0 0.00 0.47 0.00 77 1020.0
20210922062852 55 49 5.0 18.0 0.00 0.47 0.00 77 1019.9
20210922062349 55 24 9.0 18.0 0.00 0.47 0.00 78 1020.0
20210922061851 55 54 7.0 15.0 0.00 0.47 0.00 77 1019.8
20210922061348 56 42 6.0 18.0 0.00 0.47 0.00 77 1019.8
20210922060848 56 38 6.0 18.0 0.00 0.47 0.00 77 1019.8
20210922060348 56 34 9.0 19.0 0.00 0.47 0.00 76 1019.8
20210922055847 56 49 8.0 19.0 0.00 0.47 0.00 77 1019.4
20210922055346 56 24 6.0 19.0 0.00 0.47 0.00 77 1019.4
20210922054846 56 21 7.0 19.0 0.00 0.47 0.00 77 1019.6
20210922054347 56 30 7.0 19.0 0.00 0.47 0.00 77 1019.7
20210922053845 56 62 9.0 19.0 0.00 0.47 0.00 78 1019.7
20210922053347 56 4 8.0 18.0 0.00 0.47 0.00 78 1019.6
20210922052843 56 56 7.0 17.0 0.00 0.47 0.00 79 1019.5
20210922052344 56 14 7.0 18.0 0.00 0.47 0.00 79 1019.5
20210922051843 56 45 9.0 18.0 0.00 0.47 0.00 79 1019.5
20210922051342 56 45 7.0 17.0 0.00 0.47 0.00 79 1019.7
20210922050843 56 4 5.0 17.0 0.00 0.47 0.00 79 1019.8
20210922050341 56 47 7.0 17.0 0.00 0.47 0.00 78 1020.0
20210922045841 56 231 4.0 14.0 0.00 0.47 0.00 79 1020.1
20210922045342 57 42 4.0 15.0 0.00 0.47 0.00 79 1020.1
20210922044843 57 35 7.0 17.0 0.00 0.47 0.00 78 1020.0
20210922044338 57 2 6.0 19.0 0.00 0.47 0.00 78 1020.1
20210922043839 57 11 8.0 19.0 0.00 0.47 0.00 78 1020.2
20210922043339 57 12 6.0 15.0 0.00 0.47 0.00 79 1020.6
20210922042837 57 21 4.0 14.0 0.00 0.47 0.00 78 1020.5
20210922042337 57 316 4.0 16.0 0.00 0.47 0.00 77 1020.5
20210922041837 57 47 6.0 16.0 0.00 0.47 0.00 76 1020.4
20210922041337 57 126 6.0 16.0 0.00 0.47 0.00 77 1020.2
20210922040835 57 354 5.0 16.0 0.00 0.47 0.00 78 1020.2
20210922040338 58 18 8.0 16.0 0.00 0.47 0.00 78 1020.0
20210922035836 58 329 7.0 16.0 0.00 0.47 0.47 79 1019.9
20210922035335 58 355 5.0 13.0 0.00 0.47 0.47 79 1020.0
20210922034834 58 350 2.0 12.0 0.00 0.47 0.47 79 1020.1
20210922034334 58 347 2.0 12.0 0.00 0.47 0.47 79 1020.3
20210922033833 58 58 1.0 12.0 0.00 0.47 0.47 79 1020.3
20210922033335 58 49 1.0 12.0 0.00 0.47 0.47 78 1020.3
20210922032835 58 31 2.0 7.0 0.00 0.47 0.47 80 1020.2
20210922032333 58 292 1.0 11.0 0.00 0.47 0.47 80 1020.2
20210922031831 58 338 1.0 11.0 0.00 0.47 0.47 81 1020.0
20210922031330 58 345 2.0 11.0 0.00 0.47 0.47 81 1020.0
20210922030829 58 113 0.0 7.0 0.00 0.47 0.47 81 1020.0
20210922030331 58 251 2.0 9.0 0.00 0.47 0.47 82 1019.5
20210922025832 58 228 2.0 12.0 0.00 0.47 0.47 81 1019.4
20210922025329 58 351 2.0 12.0 0.00 0.47 0.47 81 1019.3
20210922024828 58 310 2.0 5.0 0.00 0.47 0.47 81 1019.3
20210922024330 58 18 1.0 10.0 0.00 0.47 0.47 80 1019.4
20210922023827 58 329 2.0 10.0 0.00 0.47 0.47 81 1019.5
20210922023330 58 305 2.0 12.0 0.00 0.47 0.47 81 1019.2
20210922022828 58 274 2.0 12.0 0.00 0.47 0.47 80 1019.0
20210922022331 58 24 2.0 13.0 0.00 0.47 0.47 80 1019.1
20210922021827 58 4 2.0 13.0 0.00 0.47 0.47 80 1019.3
20210922021328 58 11 3.0 10.0 0.00 0.47 0.47 80 1019.5
20210922020824 58 25 3.0 10.0 0.00 0.47 0.47 80 1019.5
20210922020324 58 1 2.0 10.0 0.00 0.47 0.47 80 1019.5
20210922015824 58 5 2.0 9.0 0.00 0.47 0.47 79 1019.4
20210922015323 58 331 2.0 11.0 0.00 0.47 0.47 79 1019.4
20210922014825 58 316 2.0 11.0 0.00 0.47 0.47 79 1019.2
20210922014326 58 49 3.0 11.0 0.00 0.47 0.47 79 1019.1
20210922013822 58 18 3.0 11.0 0.00 0.47 0.47 79 1019.0
20210922013321 58 316 2.0 15.0 0.00 0.47 0.47 80 1019.0
20210922012822 58 358 3.0 15.0 0.00 0.47 0.47 80 1019.0
20210922012321 58 286 2.0 13.0 0.00 0.47 0.47 80 1019.0
20210922011820 58 302 3.0 13.0 0.00 0.47 0.47 79 1019.0
20210922011320 58 281 1.0 10.0 0.00 0.47 0.47 80 1018.9
20210922010820 58 35 2.0 14.0 0.00 0.47 0.47 80 1019.0
20210922010319 58 292 4.0 14.0 0.00 0.47 0.47 80 1019.1
20210922005818 58 75 2.0 11.0 0.00 0.47 0.47 79 1019.0
20210922005319 58 299 3.0 9.0 0.00 0.47 0.47 79 1018.8
20210922004814 58 279 1.0 16.0 0.00 0.47 0.47 79 1018.8
20210922004313 58 327 3.0 16.0 0.00 0.47 0.47 79 1018.9
20210922003812 58 336 2.0 7.0 0.00 0.47 0.47 78 1018.7
20210922003313 58 351 2.0 10.0 0.00 0.47 0.47 78 1018.6
20210922002814 58 312 3.0 13.0 0.00 0.47 0.47 78 1018.5
20210922002311 58 73 2.0 13.0 0.00 0.47 0.47 78 1018.4
20210922001813 58 330 2.0 14.0 0.00 0.47 0.47 79 1018.3
20210922001312 58 330 4.0 14.0 0.00 0.47 0.47 78 1018.1
20210922000812 58 347 4.0 10.0 0.00 0.47 0.47 79 1017.9
20210922000309 58 63 2.0 9.0 0.00 0.47 0.47 79 1017.9
20210921235806 58 338 1.0 9.0 0.00 0.47 0.47 79 1017.9
20210921235317 58 1 2.0 11.0 0.00 0.47 0.47 79 1017.9
20210921234805 59 320 3.0 11.0 0.00 0.47 0.47 79 1017.8
20210921234304 59 276 2.0 13.0 0.00 0.47 0.47 79 1017.9
20210921233803 59 355 3.0 13.0 0.00 0.47 0.47 80 1018.0
20210921233306 59 355 2.0 11.0 0.00 0.48 0.47 80 1018.0
20210921232804 59 307 2.0 17.0 0.00 0.49 0.47 80 1018.1
20210921232305 59 323 2.0 17.0 0.00 0.49 0.47 80 1017.9
20210921231802 59 295 3.0 15.0 0.00 0.49 0.47 80 1017.8
20210921231303 59 299 3.0 15.0 0.00 0.49 0.47 81 1017.7
20210921230802 59 353 1.0 6.0 0.00 0.49 0.47 81 1017.7
20210921230301 59 327 2.0 7.0 0.00 0.49 0.47 81 1017.7
20210921225801 60 19 2.0 12.0 0.00 0.49 0.47 81 1017.7
20210921225301 60 1 4.0 12.0 0.00 0.49 0.47 81 1017.7
20210921224803 60 15 3.0 13.0 0.00 0.49 0.47 81 1017.7
20210921224259 60 298 3.0 13.0 0.00 0.49 0.47 81 1017.6
20210921223757 60 155 4.0 14.0 0.00 0.49 0.47 81 1017.5
20210921223256 60 322 4.0 14.0 0.00 0.49 0.47 81 1017.5
20210921222758 60 1 3.0 15.0 0.00 0.49 0.47 80 1017.4
20210921222257 60 329 4.0 15.0 0.00 0.49 0.47 80 1017.4
20210921221758 60 254 3.0 11.0 0.00 0.49 0.47 80 1017.4
20210921221256 60 358 2.0 14.0 0.00 0.49 0.47 80 1017.3
20210921220757 61 25 3.0 14.0 0.00 0.49 0.47 80 1017.1
20210921220254 61 312 3.0 13.0 0.00 0.49 0.47 80 1017.1
20210921215754 61 7 4.0 13.0 0.00 0.49 0.47 80 1017.1
20210921215249 61 319 2.0 9.0 0.00 0.49 0.47 80 1016.9
20210921214748 61 314 2.0 12.0 0.00 0.49 0.47 80 1016.9
20210921214249 61 347 3.0 13.0 0.00 0.49 0.47 80 1016.8
20210921213749 62 344 2.0 13.0 0.00 0.49 0.47 79 1016.8
20210921213249 62 334 3.0 10.0 0.00 0.49 0.47 80 1016.8
20210921212750 62 302 4.0 11.0 0.00 0.49 0.47 79 1016.7
20210921212248 62 302 2.0 11.0 0.00 0.49 0.47 80 1016.7
20210921211744 62 357 1.0 9.0 0.00 0.50 0.47 79 1016.7
20210921211243 62 165 1.0 12.0 0.00 0.50 0.47 79 1016.5
20210921210744 63 289 3.0 12.0 0.00 0.50 0.47 78 1016.5
20210921210241 63 313 1.0 11.0 0.00 0.50 0.47 79 1016.5
20210921205743 63 326 2.0 12.0 0.00 0.50 0.47 79 1016.3
20210921205241 63 322 4.0 12.0 0.00 0.50 0.47 81 1016.3
20210921204743 63 257 3.0 11.0 0.00 0.50 0.47 82 1016.3
20210921204237 62 327 3.0 10.0 0.00 0.50 0.47 81 1016.2
20210921203738 62 354 2.0 10.0 0.00 0.51 0.47 82 1016.2
20210921203238 62 302 1.0 11.0 0.00 0.51 0.47 82 1016.1
20210921202737 62 355 3.0 11.0 0.00 0.51 0.47 83 1016.2
20210921202237 62 34 2.0 11.0 0.00 0.51 0.47 82 1016.0
20210921201736 62 296 2.0 11.0 0.00 0.51 0.47 81 1016.0
20210921201236 62 243 3.0 11.0 0.00 0.51 0.47 82 1015.8
20210921200734 62 331 2.0 12.0 0.00 0.51 0.47 81 1015.8
20210921200235 62 292 3.0 12.0 0.00 0.51 0.47 81 1015.7
20210921195736 63 329 2.0 10.0 0.00 0.51 0.47 81 1015.6
20210921195237 63 320 1.0 10.0 0.00 0.51 0.47 82 1015.6
20210921194734 63 18 3.0 10.0 0.00 0.51 0.47 82 1015.5
20210921194232 62 298 2.0 7.0 0.00 0.51 0.47 83 1015.5
20210921193733 62 283 2.0 14.0 0.00 0.51 0.47 83 1015.3
20210921193233 62 4 2.0 14.0 0.00 0.51 0.47 82 1015.3
20210921192733 62 7 2.0 11.0 0.00 0.51 0.47 82 1015.4
20210921192232 62 276 3.0 10.0 0.00 0.51 0.47 82 1015.3
20210921191733 62 7 2.0 13.0 0.00 0.51 0.47 82 1015.2
20210921191234 63 316 4.0 13.0 0.00 0.51 0.47 81 1015.1
20210921190737 63 303 4.0 12.0 0.00 0.51 0.47 83 1015.1
20210921190233 63 302 2.0 11.0 0.00 0.51 0.47 85 1014.9
20210921185733 63 272 2.0 11.0 0.00 0.51 0.47 85 1015.1
20210921185232 63 351 4.0 11.0 0.00 0.51 0.47 86 1015.1
20210921184733 63 14 1.0 10.0 0.00 0.51 0.47 86 1014.8
20210921184232 63 289 4.0 10.0 0.00 0.51 0.47 87 1014.9
20210921183732 62 271 4.0 10.0 0.00 0.51 0.47 87 1014.9
20210921183233 62 283 2.0 10.0 0.00 0.51 0.47 88 1014.7
20210921182736 62 307 2.0 9.0 0.00 0.51 0.47 87 1014.6
20210921182233 63 354 1.0 9.0 0.00 0.51 0.47 86 1014.7
20210921181732 63 309 2.0 6.0 0.00 0.51 0.47 86 1014.7
20210921181232 64 316 1.0 6.0 0.00 0.51 0.47 87 1014.6
20210921180731 64 213 2.0 7.0 0.00 0.51 0.47 87 1014.5
20210921180233 64 310 4.0 12.0 0.00 0.51 0.47 87 1014.5
20210921175733 64 259 6.0 12.0 0.00 0.51 0.47 88 1014.4
20210921175235 63 306 3.0 10.0 0.00 0.51 0.47 89 1014.4
20210921174732 63 334 6.0 10.0 0.00 0.51 0.47 90 1014.3
20210921174233 63 283 2.0 10.0 0.00 0.51 0.47 90 1014.1
20210921173732 63 317 3.0 7.0 0.00 0.51 0.47 90 1014.0
20210921173234 63 299 4.0 9.0 0.00 0.51 0.47 90 1014.1
20210921172731 63 254 3.0 9.0 0.00 0.51 0.47 90 1013.9
20210921172231 63 312 4.0 7.0 0.00 0.51 0.47 90 1013.9
20210921171736 63 288 3.0 7.0 0.00 0.51 0.47 91 1013.6
20210921171229 63 282 4.0 12.0 0.00 0.51 0.47 92 1013.6
20210921170730 63 329 6.0 12.0 0.00 0.51 0.47 92 1013.6
20210921170233 63 326 3.0 7.0 0.00 0.51 0.47 93 1013.5
20210921165731 63 281 2.0 7.0 0.00 0.51 0.47 93 1013.5
20210921165231 63 278 1.0 7.0 0.00 0.51 0.47 93 1013.3
20210921164728 63 269 3.0 10.0 0.00 0.51 0.47 94 1013.3
20210921164233 62 298 4.0 10.0 0.00 0.51 0.47 93 1013.1
20210921163728 62 337 3.0 10.0 0.00 0.51 0.47 93 1012.9
20210921163229 63 269 4.0 15.0 0.00 0.51 0.47 93 1013.1
20210921162730 63 290 5.0 15.0 0.00 0.51 0.47 93 1013.0
20210921162229 63 298 4.0 13.0 0.00 0.51 0.47 94 1012.9
20210921161730 64 276 6.0 15.0 0.00 0.51 0.47 94 1012.8
20210921161228 64 262 5.0 15.0 0.00 0.51 0.47 95 1012.6
20210921160731 64 267 3.0 12.0 0.00 0.51 0.47 95 1012.6
20210921160228 64 316 5.0 16.0 0.01 0.51 0.47 95 1012.3
20210921155728 64 317 4.0 16.0 0.02 0.51 0.47 95 1012.2
20210921155226 65 302 4.0 14.0 0.09 0.51 0.47 95 1012.0
20210921154726 65 336 3.0 14.0 0.24 0.51 0.47 95 1011.8
20210921154226 66 286 2.0 9.0 0.33 0.51 0.47 96 1011.6
20210921153726 67 310 2.0 12.0 0.34 0.51 0.47 96 1011.5
20210921153226 66 340 4.0 12.0 0.35 0.51 0.47 96 1011.3
20210921152727 66 281 5.0 11.0 0.36 0.51 0.47 96 1011.1
20210921152226 66 322 6.0 16.0 0.36 0.51 0.47 96 1010.9
20210921151725 67 259 8.0 16.0 0.41 0.51 0.47 96 1010.9